Location: Eastchurch
(51.4000°N, 0.8667°E)
Time: 00:18:22
(UTC+00:00)

USA 267 - Pass Details

Date: 19 January 2026
Orbit: 1101 x 1107 km, 123.0° (Epoch: 10 January)

Event Time Altitude Azimuth Distance (km) Brightness Sun altitude
Exits shadow 20:44:35 40° 263° (W) 1,575 4.3 -39.8°
Drops below altitude 10° 20:49:10 10° 296° (WNW) 2,966 6.2 -40.5°
Sets 20:51:46 0° 302° (WNW) 3,926 7.0 -40.9°
